STARLINK-11317, 61248

Orbit data source: Space-Track

STARLINK-11317, 61248 is a payload satellite owned by SpaceX/Seattle (US) in LEO that was launched on Wed, 25 Sep 2024 UTC via an FALCON 9 launch vehicle from the Air Force Western Test Range (AFWTR). Payload-class satellites include a variety of spacecraft equipped with specific instruments for various scientific and technological missions. These include communications satellites like Starlink; space stations such as the ISS; scientific satellites like the Hubble; Earth observation satellites from companies like Planet Labs, Umbra, and HawkEye 360; GPS; miniature CubeSats for education and research; and military/defense satellites.

Loading next visibility...
Identifier
61248, 2024-175F
Orbit
LEO
Last TLE update
14 hours ago
Origin
Manufacturer
SpaceX/Seattle
Mission
Operational Commercial Communications
Bus & Motor
STARLINK V2M, Unknown motor
Mass
730 kg wet, ~700 kg dry
Launch date (UTC)
2024-09-25 (9 months ago)
Launch vehicle
FALCON 9
Launch site
Air Force Western Test Range (AFWTR)
Object type
Payload
Rocket body
Debris
Shape & HBR
Box + 2 Pan, 29 m
Radar Cross Section
36.964 m², Large (>1 m²)

Expand to show TLE details & history

TLE from 14 hours ago
0 STARLINK-11317
1 61248U 24175F   25181.51863136 -.00000281  00000-0  25442-5 0  9994
2 61248  53.1601 219.1213 0001297  86.6001 273.5165 15.69708643 43766
Epoch: 2025-06-30T12:26Z
TLE epoch observation values (Epoch: 2025-06-30T12:26:49.749Z)
Latitude
-0.00005°
Longitude
113.5867°
Altitude
360.592 km
Speed
7.694 km/s
True Right ascension
14h 36m 29s
True Declination
0° 00' 00"
Sunlit
Object was in full shadow at epoch
Visualization orbit readout
Latitude
47.37777°
Longitude
-123.38758°
Altitude
364.145 km
Speed
7.697 km/s
Apparent Right ascension
00h 37m 10s
Apparent Declination
5° 49' 32"
Sunlit
Object is in daylight
Visualization observer readout
Local Sidereal Time
14:18:01
Azimuth
32.887° NE
Elevation
-38.697°
Doppler factor
1
Orbital elements
Apogee altitude
360.865 km
Perigee altitude
359.117 km
Semi-major axis
6,738.128 km
Eccentricity
0.00013
Inclination
53.1601°
RAAN
219.1213°
Arg. of periapsis
86.6001°
True anomaly
Unknown
Mean anomaly
273.5165°
Eccentric anomaly
Unknown
Mean motion
3.92405 °/min
Orbital period
91.74 mins
BSTAR
0.0000025442
Loading maneuver chart data...
Loading SW <> Apogee altitude chart data...
Loading historical data...
Loading historical data...
Loading historical data...
Loading historical data...
Loading historical data...
Loading historical data...
Loading historical data...

STARLINK-11317 Visibility forecast

Observer location: undefined°, undefined°

Span
Click to sort rows by Start time (UTC) header in descending order
Start Az.
Max El. time (UTC)
Max El. Az.
Max El.
End time (UTC)
End Az.
5 mins2025-07-01 05:26:51.005Z237.825° WSW2025-07-01 05:28:51.005Z268.559° W40.417°2025-07-01 05:31:51.005Z45.099° ENE
4 mins2025-07-01 11:52:51.005Z323.822° NNW2025-07-01 11:53:51.005Z17.24° NNE42.804°2025-07-01 11:56:51.005Z123.347° SE
|